Regional Weather Roundup
Issued by NWS

Home | Current Version | Previous Version | Graphics & Text | Print | Product List | Glossary On
Versions: 1 2 3 4 5 6 7 8 9 10 11 12 13 14 15 16 17 18 19 20 21 22 23 24 25 26 27 28 29 30 31 32 33 34 35 36 37 38 39 40 41 42 43 44 45 46 47 48 49 50
000
ASUS43 KLMK 120210
RWRKY
KENTUCKY REGIONAL WEATHER ROUNDUP
NATIONAL WEATHER SERVICE LOUISVILLE KY
900 PM EST THU FEB 11 2016

NOTE "FAIR" INDICATES FEW OR NO CLOUDS BELOW 12,000 FEET
WITH NO SIGNIFICANT WEATHER AND/OR OBSTRUCTIONS TO VISIBILITY.

KYZ001>023-026-027-061>063-070>075-120300-
WESTERN AND SOUTH CENTRAL KENTUCKY

CITY           SKY/WX    TMP DP  RH WIND       PRES   REMARKS
PADUCAH        CLOUDY    33  18  53 E9        30.27F WCI  25
HENDERSON      CLOUDY    30  12  47 NE6       30.31F WCI  24
OWENSBORO      CLOUDY    30  11  45 NE6       30.32S WCI  24
HOPKINSVILLE   CLOUDY    31  19  60 NE8       30.29S WCI  24
BOWLING GREEN  PTCLDY    33  15  47 N3        30.31R
GLASGOW        PTCLDY    30  17  57 CALM      30.29R
$$

KYZ024-025-028>034-038-045-046-053-120300-
NORTH CENTRAL KENTUCKY

CITY           SKY/WX    TMP DP  RH WIND       PRES   REMARKS
LOUISVILLE/SDF CLOUDY    29   9  43 E3        30.32R
LOUISVILLE/LOU CLOUDY    28   9  44 NE3       30.33R
FORT KNOX      CLOUDY    28  10  45 VRB5      30.28S WCI  23
$$

KYZ035>037-039>044-047>052-055>060-089>105-120300-
NORTHEAST KENTUCKY

CITY           SKY/WX    TMP DP  RH WIND       PRES   REMARKS
LEXINGTON      PTCLDY    23  12  62 NE8       30.29R WCI  14
COVINGTON      CLOUDY    20   7  57 N5        30.30S WCI  13
FRANKFORT      PTCLDY    25   9  50 CALM      30.30R
$$

KYZ054-064>069-076>088-106>120-120300-
SOUTHEAST KENTUCKY

CITY           SKY/WX    TMP DP  RH WIND       PRES   REMARKS
JACKSON        PTCLDY    23   9  55 CALM      30.25S
LONDON         CLOUDY    27   9  46 N3        30.27R
SOMERSET       PTCLDY    27  12  54 NE3       30.30R
MIDDLESBORO    CLEAR     27  20  76 CALM      30.25F
MONTICELLO     CLOUDY    27  20  75 N10       30.30R WCI  17
$$




USA.gov is the U.S. government's official web portal to all federal, state and local government web resources and services.